Wind_Speed
27 23 23 28 29 29 28 26 22 17 18 16 16 15 15 14 14 14 16 16 15 14 11 8 8 10 12 13 14 16 17 18 19 19 18 18 19 19 20 20 19 19 19 17 17 18 17 17 19
26 23 24 23 35 34 32 26 25 22 19 19 18 17 16 15 15 16 15 17 17 13 10 9 10 13 13 14 15 17 19 21 23 24 24 23 22 21 20 19 18 19 18 19 21 21 21 20 20
25 25 25 26 23 30 33 28 27 26 24 23 21 18 17 17 18 17 18 17 18 14 11 11 12 12 11 12 14 17 20 23 26 27 28 28 28 26 25 25 26 26 24 24 24 26 24 23 22
27 28 29 27 25 23 23 27 27 26 25 26 24 22 19 19 20 18 18 17 17 15 14 13 14 14 14 15 19 22 24 26 28 29 30 31 29 26 25 24 25 24 25 26 28 29 28 26 25
30 30 31 30 28 26 25 28 28 29 27 28 27 24 22 21 21 20 18 18 19 18 17 16 16 18 20 21 25 27 27 28 30 29 29 26 23 23 24 25 25 25 27 30 33 33 36 36 36
33 30 33 31 29 29 29 28 29 28 28 30 28 26 24 23 24 21 21 21 21 21 21 21 21 22 22 25 28 28 30 30 30 29 25 24 22 24 25 26 28 31 33 37 38 41 41 40 40
36 32 33 33 30 30 31 30 30 29 29 30 30 28 26 27 26 24 24 24 24 24 24 24 25 26 27 29 31 34 35 37 35 28 26 26 23 25 27 29 33 37 39 42 43 42 41 42 41
37 36 35 37 34 32 33 32 32 31 32 33 31 30 29 28 29 28 27 27 27 27 27 28 29 29 31 33 37 39 41 38 32 28 28 26 29 30 30 34 38 42 44 46 45 45 45 45 45
40 40 38 40 40 36 37 35 34 33 34 33 33 32 30 32 32 31 31 30 31 31 31 32 33 33 34 36 41 40 37 32 29 31 29 27 32 35 36 39 41 44 48 48 49 49 49 47 50
38 44 43 43 45 42 40 38 39 38 37 36 34 34 33 35 35 34 34 34 34 34 36 36 36 36 37 38 37 33 32 30 29 33 34 34 38 41 43 46 44 48 51 54 53 49 50 50 50
43 37 42 47 48 46 44 42 42 41 41 39 37 38 36 38 36 36 37 37 38 39 40 39 39 40 38 37 36 35 34 32 33 38 41 43 44 46 49 47 50 54 58 58 58 55 54 55 56
41 41 38 50 50 49 49 45 45 44 45 44 41 38 37 40 40 40 41 41 42 42 43 44 43 43 41 40 36 35 36 37 39 43 47 48 50 51 50 53 55 59 63 62 62 60 60 62 64
50 46 46 39 52 52 51 49 48 46 48 48 46 44 42 44 44 44 45 45 46 46 47 46 45 43 41 40 36 35 38 40 42 46 49 52 54 54 56 57 60 61 64 65 64 64 67 69 68
59 53 49 48 40 55 54 53 51 50 52 49 47 49 48 48 49 50 50 50 50 51 51 49 46 46 40 40 41 43 42 45 48 50 51 54 56 57 58 59 61 63 65 67 68 71 72 71 67
62 58 54 50 49 39 57 55 58 54 54 53 53 55 53 53 53 54 54 55 55 55 53 49 45 44 41 40 39 43 47 51 52 53 55 55 57 58 61 62 65 68 69 70 71 71 71 67 68
59 58 57 56 55 53 44 49 62 58 57 57 58 59 58 56 56 58 58 59 59 59 56 50 47 48 47 46 48 49 51 54 56 57 58 59 61 60 63 65 68 69 72 73 76 74 69 70 70
66 61 61 64 58 56 53 47 49 54 58 60 60 61 60 58 57 60 62 63 62 60 57 53 50 53 53 57 58 56 57 57 60 62 63 65 64 66 66 68 71 73 77 78 74 73 73 73 75
76 69 66 65 67 61 59 60 57 50 46 47 57 63 62 59 61 63 65 65 63 61 58 56 53 55 58 62 62 60 59 60 65 66 66 67 69 70 72 74 78 78 80 79 78 76 77 76 79
79 76 72 71 69 67 63 60 63 62 56 57 55 52 51 51 63 65 66 65 64 62 59 57 55 57 61 65 68 66 67 68 69 70 69 71 71 73 77 79 79 80 79 82 81 80 80 81 84
79 79 78 72 71 72 70 65 66 63 60 61 63 64 60 53 54 59 61 62 63 63 61 59 61 62 62 67 69 69 70 71 72 73 76 76 78 80 78 80 82 83 84 82 81 82 84 86 89
79 81 78 77 76 75 74 73 65 67 64 63 64 65 62 60 62 62 60 60 59 60 61 63 62 65 68 70 71 72 74 75 77 78 79 82 82 79 80 85 88 87 86 84 86 87 89 92 94
81 82 80 78 78 77 75 72 76 73 64 63 64 67 65 65 63 64 65 64 64 65 63 61 65 69 72 71 72 75 76 78 79 82 85 82 83 85 87 90 91 92 89 90 89 91 93 98 101
81 85 82 79 80 78 75 75 71 77 81 80 78 75 72 70 69 69 70 68 68 69 68 69 73 76 76 76 77 79 79 82 83 79 79 82 87 91 93 94 96 97 96 95 93 97 101 104 105
83 85 87 85 84 77 77 79 70 75 77 79 81 79 79 80 80 79 76 70 69 69 71 72 72 79 80 80 79 82 82 81 79 83 87 89 91 93 96 97 97 98 97 96 100 103 107 107 105
87 90 90 89 86 79 81 83 76 80 83 82 81 81 82 83 80 76 76 77 75 78 80 73 78 84 83 83 82 81 83 85 86 89 91 92 96 97 98 100 99 101 101 103 105 110 109 109 109
91 92 92 90 87 85 83 81 80 82 86 88 89 87 85 84 85 85 83 82 85 87 86 87 87 85 86 88 90 90 90 90 94 94 94 98 99 104 102 103 105 104 106 109 109 110 111 112 118
96 93 93 91 91 90 86 86 87 85 86 87 89 93 93 90 91 91 91 92 96 94 94 93 90 91 85 86 91 93 94 95 93 96 98 103 106 107 108 107 106 109 110 112 113 113 116 119 120
98 100 99 96 92 91 91 90 91 92 92 91 92 92 92 92 90 90 93 95 96 96 94 91 94 93 93 93 95 97 95 98 100 103 103 107 110 108 106 108 111 113 115 114 115 119 121 124 126
102 102 104 104 100 95 91 91 93 92 94 95 95 92 92 93 95 96 98 96 96 94 94 97 96 95 97 97 98 100 100 102 104 107 109 110 110 111 111 114 116 115 116 119 122 124 126 126 116
106 104 104 104 103 102 98 94 92 94 96 97 98 99 100 101 101 101 101 99 97 98 96 97 98 99 98 98 100 103 105 107 110 110 110 112 112 114 116 115 116 119 122 124 129 127 125 114 107
Wind_Direction
220 225 233 226 209 213 221 231 238 235 233 226 219 223 230 235 247 258 265 270 279 289 297 319 329 329 327 334 339 341 342 343 344 343 343 345 344 343 344 347 350 349 351 353 352 349 343 333 325
223 223 228 235 226 221 223 234 240 236 235 216 218 220 222 228 237 252 267 278 284 289 292 306 318 325 327 328 327 328 327 329 333 339 341 340 337 333 333 333 332 331 332 336 338 338 335 331 327
224 223 228 234 237 231 230 232 232 235 233 216 218 216 224 233 244 255 268 278 286 286 285 297 308 314 320 325 326 324 323 326 327 329 329 329 329 329 329 327 330 329 329 331 333 332 328 324 325
228 221 227 234 243 237 227 220 230 230 227 215 221 219 228 238 248 257 268 280 283 281 285 297 305 303 306 306 312 313 316 317 319 323 324 325 323 322 323 325 328 329 331 330 327 327 324 318 312
231 220 226 237 242 241 233 228 227 226 223 218 221 223 229 241 250 260 272 281 285 282 279 286 295 298 298 298 302 307 309 313 316 319 319 318 319 325 329 332 333 329 325 325 323 320 318 313 309
244 229 226 231 239 239 234 235 231 229 229 222 223 226 232 242 254 264 272 277 284 283 280 282 289 292 295 296 300 302 306 312 316 314 311 309 317 323 323 326 327 324 323 323 322 320 316 312 308
244 240 230 229 235 238 235 235 233 233 231 227 227 232 237 243 252 259 270 276 277 281 281 282 284 290 294 296 302 305 306 308 310 306 304 307 309 310 313 317 320 320 320 322 321 319 316 313 310
244 242 233 229 232 235 236 236 235 236 235 232 234 236 241 245 252 256 266 269 272 277 280 280 282 288 292 297 299 300 300 303 302 297 299 299 299 305 309 312 313 319 323 324 324 320 317 317 314
253 243 237 230 234 234 235 237 236 237 238 234 234 237 240 246 251 257 263 266 269 274 277 279 281 285 290 292 295 295 299 298 296 292 297 300 301 303 307 311 315 323 323 324 322 319 318 316 314
249 253 238 232 233 233 236 237 241 238 240 237 236 239 242 248 253 258 261 264 268 272 274 275 279 284 287 291 287 284 287 287 290 288 290 293 296 303 306 312 315 320 320 322 320 318 319 317 314
237 251 249 230 232 232 235 238 242 242 243 242 239 239 245 248 253 258 263 265 268 270 272 275 279 282 284 288 278 275 278 280 280 285 288 292 297 304 308 312 313 317 318 319 319 318 319 319 314
237 243 250 239 232 233 235 236 241 242 244 245 244 244 246 250 255 257 260 265 267 269 271 275 280 283 285 286 275 274 281 281 281 286 293 296 299 304 310 311 312 315 314 316 317 316 316 316 317
233 237 238 254 239 234 238 238 239 241 244 244 245 246 247 252 254 258 260 264 266 270 273 276 279 279 280 280 266 269 274 283 284 287 291 297 301 304 306 308 310 312 314 315 315 315 314 316 314
234 235 240 240 256 240 237 241 241 240 245 244 247 249 249 251 255 258 259 262 266 269 273 277 281 278 272 264 262 269 278 285 289 291 296 298 301 302 304 305 309 312 313 315 315 315 316 314 312
235 233 235 240 240 249 246 239 245 243 244 246 247 250 251 253 254 257 262 264 267 270 273 276 283 282 283 276 274 275 280 287 291 291 295 297 299 302 305 308 310 313 313 313 315 313 312 311 311
238 242 238 240 241 239 241 252 243 244 246 248 250 253 254 257 259 261 264 265 268 271 275 276 275 275 279 284 284 286 289 290 293 296 297 300 300 302 307 309 311 311 312 312 311 310 308 308 309
244 243 244 242 242 242 241 245 252 255 254 251 252 252 254 257 260 263 265 268 271 274 277 279 276 275 278 281 285 291 294 296 297 300 300 300 301 304 305 307 308 308 310 310 308 307 307 307 311
242 245 248 247 244 245 244 243 248 250 254 257 259 254 256 259 261 262 264 267 270 274 276 279 275 276 276 278 282 287 290 292 295 298 298 299 301 303 304 306 307 306 307 307 306 303 303 306 309
241 246 246 243 243 243 243 245 249 251 253 254 255 259 263 267 265 264 266 269 271 274 277 276 276 276 273 278 281 286 288 291 293 295 298 300 301 302 303 305 306 306 307 306 303 301 302 305 309
246 246 244 242 243 244 243 246 247 248 251 254 257 259 259 261 266 269 270 270 273 275 275 274 273 275 274 278 283 287 288 290 289 291 297 297 298 300 302 303 304 305 305 302 301 301 302 305 307
245 247 246 245 245 244 246 246 246 251 252 256 259 259 258 259 261 264 266 268 269 270 271 273 273 274 275 279 282 284 286 289 291 292 293 295 297 298 300 300 302 304 303 301 303 302 304 305 307
246 247 249 246 247 248 247 248 249 247 247 254 258 260 257 259 260 262 264 266 268 269 269 270 271 273 276 278 281 283 287 289 290 291 293 295 295 297 299 301 302 303 303 302 302 304 304 306 308
247 250 253 252 251 249 249 249 252 253 256 259 252 251 253 254 258 262 266 267 268 269 269 271 270 274 275 278 280 283 286 288 290 290 291 293 295 298 299 301 301 302 302 302 302 303 306 307 307
247 248 251 252 252 254 250 251 249 251 252 257 258 257 262 266 269 267 266 264 267 269 274 274 279 279 279 280 284 284 283 288 287 286 290 295 296 298 299 300 300 301 302 302 303 305 306 306 305
245 246 248 250 254 254 253 254 252 255 255 255 255 260 263 264 266 266 264 263 265 266 265 269 273 275 278 278 281 285 288 285 287 290 293 294 295 296 297 298 300 301 302 303 303 305 305 304 305
245 246 250 252 253 254 255 257 256 256 257 256 255 256 259 262 265 262 261 260 262 264 264 268 273 275 279 281 282 283 287 289 289 292 292 293 294 297 297 299 300 301 301 303 304 302 303 304 305
245 247 249 250 251 253 255 256 256 256 256 256 257 259 259 261 261 262 265 265 268 269 269 272 277 278 281 282 283 285 287 290 291 290 292 293 295 297 298 299 299 300 302 302 302 301 303 304 304
248 249 250 251 251 252 253 254 255 257 258 258 260 262 264 264 263 264 265 268 269 272 276 279 279 280 280 284 285 286 287 288 290 292 293 294 296 297 297 298 299 300 301 302 301 303 304 303 303
248 249 251 251 251 252 253 253 254 256 258 259 260 260 261 261 262 263 266 270 274 275 277 277 278 279 281 283 284 285 287 288 290 291 294 294 295 297 297 298 299 300 300 302 303 303 303 303 301
250 250 251 253 255 254 254 254 255 255 255 257 258 258 259 262 265 269 271 273 273 273 275 276 277 278 280 281 282 283 285 287 289 291 293 294 295 295 297 298 299 300 301 302 303 302 303 301 300
Height
10851 10853 10854 10854 10855 10856 10859 10859 10860 10862 10862 10863 10863 10864 10865 10866 10865 10866 10865 10865 10865 10865 10864 10864 10863 10862 10861 10860 10859 10857 10856 10855 10853 10852 10851 10849 10847 10846 10844 10843 10841 10839 10837 10836 10835 10833 10832 10830 10828
10848 10850 10852 10851 10851 10854 10856 10856 10856 10858 10859 10860 10861 10862 10863 10864 10864 10864 10864 10863 10863 10863 10863 10862 10861 10860 10859 10858 10857 10855 10854 10853 10851 10850 10849 10848 10846 10845 10843 10842 10841 10839 10838 10836 10834 10833 10831 10829 10827
10843 10847 10848 10848 10848 10850 10854 10853 10853 10855 10856 10857 10858 10860 10861 10862 10861 10862 10862 10861 10860 10860 10860 10860 10859 10859 10858 10857 10855 10854 10853 10851 10849 10847 10846 10845 10844 10843 10842 10840 10839 10838 10836 10835 10834 10832 10830 10827 10825
10839 10842 10844 10845 10846 10847 10850 10850 10850 10851 10853 10854 10856 10857 10859 10859 10859 10860 10860 10859 10858 10858 10858 10858 10858 10857 10856 10855 10854 10852 10851 10849 10847 10845 10844 10842 10840 10839 10838 10837 10836 10835 10834 10833 10831 10829 10827 10825 10823
10834 10838 10839 10841 10842 10845 10847 10846 10846 10847 10849 10851 10853 10854 10855 10856 10857 10857 10857 10857 10856 10855 10855 10855 10855 10854 10853 10852 10850 10849 10848 10846 10844 10843 10841 10838 10836 10835 10834 10834 10833 10832 10831 10829 10827 10825 10823 10821 10818
10829 10834 10835 10837 10838 10840 10842 10842 10842 10844 10846 10848 10850 10850 10852 10853 10853 10853 10854 10853 10853 10852 10852 10852 10851 10850 10850 10848 10847 10845 10844 10842 10841 10839 10837 10834 10832 10831 10831 10830 10829 10827 10826 10825 10822 10820 10817 10814 10811
10823 10829 10831 10832 10834 10835 10837 10837 10839 10841 10843 10845 10846 10847 10849 10849 10849 10849 10850 10849 10848 10848 10848 10848 10847 10847 10845 10844 10842 10840 10838 10837 10836 10834 10832 10830 10829 10827 10826 10825 10824 10822 10820 10818 10815 10813 10810 10807 10804
10816 10822 10825 10826 10828 10830 10831 10832 10834 10837 10838 10841 10842 10843 10845 10845 10845 10846 10846 10845 10845 10845 10845 10844 10843 10843 10841 10839 10837 10835 10833 10833 10831 10828 10827 10826 10824 10823 10822 10820 10819 10816 10813 10810 10808 10806 10802 10799 10796
10810 10814 10818 10821 10821 10825 10825 10827 10829 10831 10832 10835 10837 10838 10840 10840 10840 10841 10841 10840 10840 10840 10840 10839 10839 10838 10837 10835 10831 10829 10828 10827 10826 10823 10822 10820 10818 10816 10816 10815 10812 10809 10806 10803 10801 10798 10794 10791 10787
10802 10805 10810 10813 10814 10817 10819 10821 10823 10826 10827 10830 10832 10833 10835 10834 10835 10835 10836 10835 10835 10835 10834 10833 10833 10833 10832 10829 10826 10824 10823 10821 10820 10818 10817 10815 10812 10810 10808 10806 10804 10802 10799 10796 10793 10790 10787 10783 10778
10794 10797 10801 10804 10806 10810 10813 10815 10816 10820 10822 10824 10827 10828 10830 10829 10829 10830 10830 10829 10828 10827 10827 10827 10828 10828 10826 10823 10820 10818 10816 10816 10814 10811 10811 10809 10806 10804 10801 10799 10796 10793 10790 10787 10783 10780 10777 10774 10769
10785 10788 10792 10795 10798 10802 10805 10809 10809 10813 10814 10817 10821 10823 10824 10823 10823 10824 10823 10822 10821 10820 10819 10820 10822 10821 10819 10818 10816 10814 10812 10810 10808 10806 10803 10800 10798 10797 10794 10792 10788 10785 10781 10778 10774 10770 10767 10762 10757
10776 10779 10784 10787 10790 10795 10797 10801 10803 10804 10805 10809 10813 10815 10818 10817 10816 10816 10815 10815 10814 10813 10812 10814 10815 10815 10811 10809 10807 10806 10805 10804 10803 10800 10797 10793 10791 10789 10786 10783 10779 10775 10771 10768 10764 10760 10756 10750 10745
10766 10770 10776 10780 10782 10786 10790 10792 10795 10796 10796 10802 10806 10807 10809 10810 10810 10808 10808 10807 10806 10805 10804 10806 10806 10803 10800 10800 10799 10797 10797 10796 10795 10792 10789 10785 10781 10778 10775 10772 10769 10765 10761 10756 10752 10747 10742 10737 10733
10755 10761 10766 10771 10773 10777 10779 10785 10782 10788 10791 10793 10796 10796 10800 10802 10802 10800 10799 10798 10797 10797 10799 10798 10797 10791 10790 10790 10790 10791 10789 10787 10784 10782 10779 10776 10772 10768 10765 10761 10756 10752 10748 10744 10740 10735 10730 10724 10720
10744 10751 10758 10759 10761 10768 10771 10776 10769 10780 10782 10783 10785 10787 10789 10794 10795 10792 10790 10789 10789 10789 10791 10792 10788 10785 10783 10782 10781 10781 10779 10776 10773 10771 10768 10765 10762 10759 10755 10750 10746 10741 10737 10732 10727 10721 10716 10711 10706
10734 10741 10744 10748 10753 10759 10763 10765 10763 10769 10772 10774 10775 10776 10779 10783 10785 10782 10780 10778 10778 10778 10779 10780 10778 10776 10773 10772 10771 10771 10767 10763 10760 10758 10756 10752 10748 10745 10742 10739 10736 10731 10725 10719 10713 10708 10703 10697 10693
10720 10728 10735 10739 10742 10749 10754 10755 10754 10760 10762 10763 10765 10764 10767 10774 10774 10771 10769 10768 10768 10768 10769 10767 10766 10765 10763 10762 10763 10762 10757 10753 10749 10746 10743 10741 10737 10734 10729 10725 10722 10719 10714 10707 10700 10694 10689 10684 10679
10711 10718 10721 10724 10730 10737 10742 10746 10744 10747 10752 10750 10750 10753 10759 10765 10761 10758 10757 10757 10758 10758 10758 10755 10755 10752 10750 10749 10749 10750 10746 10742 10740 10735 10731 10728 10724 10721 10717 10712 10707 10702 10697 10692 10685 10679 10674 10668 10662
10698 10704 10707 10711 10718 10725 10728 10735 10733 10736 10739 10739 10740 10744 10747 10751 10748 10746 10747 10747 10746 10746 10746 10745 10744 10741 10737 10737 10737 10736 10734 10731 10726 10723 10719 10715 10711 10707 10702 10697 10693 10687 10681 10675 10669 10663 10658 10651 10646
10685 10690 10694 10701 10706 10711 10717 10725 10724 10726 10729 10728 10729 10729 10734 10735 10734 10734 10734 10734 10735 10735 10733 10732 10732 10727 10725 10726 10725 10722 10719 10717 10713 10709 10705 10702 10697 10693 10687 10681 10676 10670 10664 10658 10652 10646 10639 10633 10626
10671 10674 10682 10687 10692 10701 10705 10715 10713 10712 10715 10718 10716 10715 10718 10721 10720 10720 10720 10721 10721 10721 10720 10719 10716 10712 10712 10713 10712 10709 10706 10703 10698 10695 10690 10686 10681 10676 10671 10665 10658 10653 10647 10641 10634 10628 10621 10613 10605
10659 10660 10667 10675 10680 10687 10695 10698 10705 10702 10703 10704 10701 10699 10699 10703 10704 10706 10707 10707 10708 10706 10705 10704 10702 10700 10699 10699 10698 10695 10692 10688 10683 10679 10674 10669 10663 10657 10651 10645 10639 10633 10627 10621 10615 10608 10600 10591 10582
10645 10647 10649 10656 10663 10676 10680 10681 10701 10687 10689 10690 10688 10687 10689 10689 10690 10692 10691 10692 10691 10690 10690 10690 10688 10685 10685 10685 10683 10680 10676 10672 10667 10662 10657 10651 10645 10639 10632 10626 10619 10613 10606 10600 10593 10585 10576 10567 10558
10631 10629 10631 10639 10649 10664 10664 10665 10686 10677 10674 10673 10673 10674 10674 10674 10675 10675 10675 10676 10675 10673 10671 10672 10671 10671 10671 10668 10666 10663 10659 10654 10649 10644 10639 10633 10625 10619 10613 10606 10599 10592 10586 10579 10571 10562 10553 10544 10536
10608 10614 10622 10629 10638 10645 10650 10657 10663 10662 10658 10657 10656 10657 10657 10658 10660 10660 10659 10657 10654 10654 10654 10656 10656 10656 10655 10652 10649 10645 10639 10634 10629 10623 10617 10611 10604 10598 10591 10585 10578 10571 10563 10556 10547 10538 10529 10520 10510
10596 10603 10602 10612 10621 10628 10635 10643 10642 10643 10642 10643 10642 10638 10639 10643 10643 10641 10641 10639 10637 10638 10641 10643 10643 10640 10637 10633 10629 10624 10618 10614 10607 10601 10595 10588 10582 10576 10569 10562 10555 10548 10541 10532 10523 10513 10504 10493 10482
10582 10580 10588 10597 10603 10611 10618 10623 10621 10624 10627 10628 10623 10623 10625 10624 10622 10621 10618 10618 10620 10624 10627 10627 10625 10623 10618 10613 10609 10604 10597 10592 10585 10579 10573 10566 10560 10554 10547 10540 10532 10524 10517 10507 10497 10486 10475 10464 10452
10557 10564 10568 10572 10582 10593 10600 10603 10607 10608 10608 10608 10607 10608 10606 10601 10600 10600 10601 10604 10609 10610 10608 10606 10603 10600 10598 10593 10587 10581 10576 10570 10565 10558 10552 10545 10537 10531 10523 10516 10508 10499 10490 10480 10469 10457 10446 10435 10424
10540 10547 10551 10558 10568 10571 10576 10585 10590 10590 10590 10589 10588 10586 10583 10581 10581 10584 10589 10590 10590 10588 10587 10587 10584 10581 10576 10571 10565 10560 10554 10548 10543 10537 10529 10521 10513 10506 10499 10491 10482 10473 10463 10452 10441 10429 10418 10407 10398